Weather History for K9MN - April, 2014

Change the Weather History Date:

Saturday, April 12, 2014

  Actual Average (KRST) Record (KRST)
Temperature  
Mean Temperature 48 °F 45 °F  
Max Temperature 52 °F 56 °F 81 °F (1931)
Min Temperature 42 °F 35 °F 14 °F (1950)
Degree Days  
Heating Degree Days 18 20  
Month to date heating degree days 270  
Since 1 July heating degree days 7142  
Cooling Degree Days 0 0  
Month to date cooling degree days 0  
Year to date cooling degree days 0  
Moisture  
Dew Point 39 °F    
Average Humidity 73    
Maximum Humidity 95    
Minimum Humidity 38    
Precipitation  
Precipitation 0.24 in 0.11 in 0.86 in (1960)
Month to date precipitation 1.13  
Year to date precipitation 4.70  
Snow  
Snow 0.00 in 0.10 in 7.20 in (1962)
Month to date snowfall 1.7  
Since 1 July snowfall 50.3  
Snow Depth -    
Sea Level Pressure  
Sea Level Pressure 29.75 in    
Wind  
Wind Speed 10 mph (ENE)    
Max Wind Speed 22 mph    
Max Gust Speed 33 mph    
Visibility 9 miles    
Events      
T = Trace of Precipitation, MM = Missing Value Source: NWS Daily Summary

Daily Weather History Graph

Daily Weather History Graph

Search for Another Location

Airport or City:

Trip Planner

Search our weather history database for the weather conditions in past years. The results will help you decide how hot, cold, wet, or windy it might be!

Date:

Astronomy

Apr. 12, 2014 Rise Set
Actual Time 6:31 AM CDT 7:50 PM CDT
Civil Twilight 6:01 AM CDT 8:20 PM CDT
Nautical Twilight 5:26 AM CDT 8:56 PM CDT
Astronomical Twilight 4:48 AM CDT 9:34 PM CDT
Moon 5:24 PM CDT (4/12) 5:04 AM CDT (4/12)
Length of Visible Light 14h 18m
Length of Day
13h 18m
Waxing Gibbous, 93% of the Moon is Illuminated
Apr 12
Waxing Gibbous
Apr 15
Full
Apr 22
Last Quarter
Apr 29
New
May 6
First Quarter

Hourly Weather History & Observations

Time (CDT) Temp. Windchill Dew Point Humidity Pressure Visibility Wind Dir Wind Speed Gust Speed Precip Events Conditions
12:12 AM 53.6 °F - 28.2 °F 38% 29.94 in 10.0 mi East 5.8 mph - N/A   Overcast
12:33 AM 52.9 °F - 28.0 °F 38% 29.94 in 10.0 mi East 9.2 mph - N/A   Overcast
12:52 AM 52.9 °F - 28.8 °F 40% 29.93 in 10.0 mi East 10.4 mph - N/A   Overcast
1:13 AM 52.7 °F - 28.6 °F 40% 29.92 in 10.0 mi East 8.1 mph - N/A   Mostly Cloudy
1:33 AM 52.7 °F - 28.0 °F 39% 29.91 in 10.0 mi ESE 9.2 mph - N/A   Mostly Cloudy
1:52 AM 52.2 °F - 29.1 °F 41% 29.90 in 10.0 mi ESE 12.7 mph 16.1 mph N/A   Mostly Cloudy
2:13 AM 51.1 °F - 29.8 °F 44% 29.89 in 10.0 mi ESE 11.5 mph 18.4 mph N/A   Mostly Cloudy
2:33 AM 51.4 °F - 29.7 °F 43% 29.87 in 10.0 mi ESE 18.4 mph 23.0 mph N/A   Mostly Cloudy
2:52 AM 50.9 °F - 30.0 °F 45% 29.86 in 10.0 mi ESE 16.1 mph 24.2 mph N/A   Mostly Cloudy
3:13 AM 50.0 °F - 30.6 °F 47% 29.85 in 10.0 mi ESE 12.7 mph 19.6 mph N/A   Mostly Cloudy
3:33 AM 50.0 °F - 31.3 °F 49% 29.84 in 10.0 mi ESE 16.1 mph 23.0 mph N/A   Mostly Cloudy
3:52 AM 49.5 °F - 32.0 °F 51% 29.85 in 10.0 mi ESE 12.7 mph 21.9 mph N/A   Overcast
4:13 AM 49.5 °F - 32.0 °F 51% 29.85 in 10.0 mi ESE 10.4 mph 24.2 mph N/A   Overcast
4:33 AM 49.3 °F - 32.0 °F 51% 29.84 in 10.0 mi ESE 12.7 mph 23.0 mph N/A   Overcast
4:52 AM 49.3 °F - 32.0 °F 51% 29.85 in 10.0 mi ESE 12.7 mph 18.4 mph N/A   Mostly Cloudy
5:13 AM 48.9 °F - 32.9 °F 54% 29.84 in 10.0 mi East 9.2 mph 16.1 mph N/A   Overcast
5:32 AM 48.7 °F - 34.3 °F 58% 29.82 in 10.0 mi East 12.7 mph 17.3 mph N/A   Overcast
5:52 AM 48.2 °F - 34.9 °F 60% 29.82 in 10.0 mi East 10.4 mph - N/A   Overcast
6:13 AM 47.7 °F - 35.6 °F 63% 29.80 in 10.0 mi ESE 10.4 mph - N/A   Overcast
6:32 AM 47.3 °F - 35.1 °F 62% 29.80 in 10.0 mi ESE 9.2 mph - N/A   Overcast
6:52 AM 46.4 °F 41.1 °F 36.1 °F 67% 29.78 in 10.0 mi ESE 11.5 mph 16.1 mph N/A   Overcast
7:13 AM 46.4 °F 40.1 °F 35.8 °F 67% 29.74 in 10.0 mi ESE 15.0 mph 21.9 mph N/A   Overcast
7:32 AM 47.3 °F - 35.2 °F 63% 29.74 in 10.0 mi ESE 11.5 mph 23.0 mph N/A   Overcast
7:52 AM 48.0 °F - 35.8 °F 63% 29.74 in 10.0 mi NE 6.9 mph - N/A   Overcast
8:13 AM 48.2 °F - 36.1 °F 63% 29.69 in 10.0 mi ENE 9.2 mph 18.4 mph N/A   Overcast
8:32 AM 47.3 °F - 36.9 °F 67% 29.80 in 10.0 mi NNW 21.9 mph 33.4 mph N/A   Overcast
8:52 AM 47.3 °F - 38.8 °F 72% 29.76 in 10.0 mi North 5.8 mph 23.0 mph N/A   Overcast
9:12 AM 48.2 °F - 40.5 °F 75% 29.72 in 1.5 mi East 6.9 mph 19.6 mph 0.13 in   Overcast
9:32 AM 45.5 °F 40.3 °F 41.2 °F 85% 29.74 in 3.0 mi NE 10.4 mph 19.6 mph 0.24 in   Overcast
9:53 AM 45.7 °F 41.0 °F 41.0 °F 84% 29.74 in 10.0 mi NE 9.2 mph 19.6 mph 0.24 in   Overcast
10:12 AM 44.8 °F 39.9 °F 40.6 °F 85% 29.75 in 10.0 mi East 9.2 mph 16.1 mph N/A   Overcast
10:32 AM 45.0 °F 40.1 °F 41.0 °F 86% 29.74 in 10.0 mi East 9.2 mph - N/A   Overcast
10:53 AM 45.5 °F 39.6 °F 40.6 °F 83% 29.74 in 10.0 mi ENE 12.7 mph 20.7 mph N/A   Overcast
11:12 AM 45.1 °F 40.8 °F 40.5 °F 84% 29.74 in 10.0 mi ENE 8.1 mph 18.4 mph N/A   Overcast
11:32 AM 45.1 °F 38.1 °F 40.5 °F 84% 29.73 in 10.0 mi East 16.1 mph 20.7 mph N/A   Overcast
11:53 AM 45.0 °F 39.3 °F 40.6 °F 85% 29.73 in 10.0 mi East 11.5 mph 20.7 mph N/A   Overcast
12:12 PM 45.5 °F 40.8 °F 41.0 °F 84% 29.73 in 10.0 mi East 9.2 mph 19.6 mph N/A   Overcast
12:32 PM 45.5 °F 39.9 °F 41.0 °F 84% 29.73 in 10.0 mi East 11.5 mph 17.3 mph N/A   Overcast
12:53 PM 45.9 °F 41.2 °F 41.4 °F 84% 29.72 in 10.0 mi East 9.2 mph 17.3 mph N/A   Overcast
1:12 PM 46.4 °F 42.4 °F 42.1 °F 85% 29.72 in 10.0 mi East 8.1 mph 18.4 mph N/A   Overcast
1:32 PM 47.3 °F - 42.6 °F 84% 29.71 in 10.0 mi East 6.9 mph 16.1 mph N/A   Mostly Cloudy
1:53 PM 47.8 °F - 42.8 °F 83% 29.71 in 10.0 mi East 10.4 mph - N/A   Mostly Cloudy
2:12 PM 48.0 °F - 43.2 °F 83% 29.71 in 10.0 mi ESE 8.1 mph - N/A   Mostly Cloudy
2:32 PM 49.1 °F - 43.2 °F 80% 29.71 in 10.0 mi East 11.5 mph - N/A   Scattered Clouds
2:53 PM 49.1 °F - 43.0 °F 79% 29.71 in 10.0 mi ESE 9.2 mph 17.3 mph N/A   Clear
3:12 PM 50.0 °F - 43.5 °F 78% 29.70 in 10.0 mi East 6.9 mph - N/A   Clear
3:32 PM 50.5 °F - 43.9 °F 78% 29.69 in 10.0 mi ENE 8.1 mph - N/A   Clear
3:53 PM 50.0 °F - 43.9 °F 79% 29.69 in 10.0 mi ENE 6.9 mph - N/A   Scattered Clouds
4:12 PM 50.2 °F - 43.7 °F 78% 29.68 in 10.0 mi NE 9.2 mph - N/A   Scattered Clouds
4:33 PM 50.5 °F - 43.7 °F 77% 29.67 in 10.0 mi NE 8.1 mph - N/A   Scattered Clouds
4:53 PM 50.7 °F - 43.3 °F 76% 29.66 in 10.0 mi NE 8.1 mph - N/A   Clear
5:12 PM 51.3 °F - 43.5 °F 75% 29.67 in 10.0 mi NE 8.1 mph - N/A   Clear
5:33 PM 50.9 °F - 43.7 °F 76% 29.69 in 10.0 mi NE 9.2 mph - N/A   Clear
5:53 PM 50.0 °F - 43.3 °F 78% 29.69 in 10.0 mi NE 10.4 mph 16.1 mph N/A   Scattered Clouds
6:12 PM 50.0 °F - 44.1 °F 80% 29.69 in 10.0 mi NE 9.2 mph - N/A   Mostly Cloudy
6:33 PM 49.6 °F - 43.9 °F 81% 29.68 in 10.0 mi NE 10.4 mph - N/A   Overcast
6:53 PM 49.1 °F - 43.7 °F 82% 29.69 in 10.0 mi NE 5.8 mph 16.1 mph N/A   Overcast
7:12 PM 48.2 °F - 43.3 °F 83% 29.69 in 10.0 mi NE 8.1 mph - N/A   Overcast
7:33 PM 47.8 °F - 43.3 °F 84% 29.68 in 10.0 mi NE 11.5 mph - N/A   Overcast
7:53 PM 47.1 °F - 43.2 °F 86% 29.70 in 10.0 mi NNE 11.5 mph 16.1 mph N/A   Overcast
8:12 PM 46.2 °F 42.7 °F 43.5 °F 90% 29.71 in 7.0 mi NE 6.9 mph 17.3 mph N/A   Overcast
8:33 PM 45.5 °F 40.3 °F 43.2 °F 92% 29.69 in 7.0 mi NE 10.4 mph 16.1 mph N/A   Overcast
8:52 PM 44.8 °F 39.9 °F 43.0 °F 93% 29.68 in 5.0 mi NE 9.2 mph - N/A   Overcast
9:12 PM 44.4 °F 42.0 °F 42.6 °F 93% 29.71 in 7.0 mi NE 4.6 mph - N/A   Overcast
9:33 PM 43.9 °F 38.3 °F 42.3 °F 94% 29.70 in 5.0 mi NNE 10.4 mph 16.1 mph N/A   Overcast
9:52 PM 43.7 °F 38.1 °F 42.1 °F 94% 29.70 in 7.0 mi ENE 10.4 mph - N/A   Overcast
10:12 PM 43.3 °F 37.7 °F 41.7 °F 94% 29.69 in 5.0 mi NE 10.4 mph 16.1 mph N/A   Overcast
10:33 PM 42.8 °F 36.6 °F 41.4 °F 95% 29.68 in 5.0 mi NNE 11.5 mph 16.1 mph N/A   Overcast
10:52 PM 42.8 °F 37.5 °F 41.4 °F 95% 29.67 in 5.0 mi NE 9.2 mph - N/A   Overcast
11:12 PM 42.8 °F 36.6 °F 41.2 °F 94% 29.67 in 5.0 mi NNE 11.5 mph - N/A   Overcast
11:33 PM 43.2 °F 39.0 °F 41.4 °F 93% 29.71 in 7.0 mi ENE 6.9 mph - N/A   Overcast
11:52 PM 43.0 °F 38.2 °F 41.0 °F 93% 29.69 in 7.0 mi NE 8.1 mph 16.1 mph N/A   Overcast